Weather History for Monett, MO

Change the Weather History Date:

Friday, January 11, 2013

  Actual Average (KJLN) Record (KJLN)
Temperature  
Mean Temperature 54 °F 34 °F  
Max Temperature 64 °F 44 °F 71 °F (1995)
Min Temperature 44 °F 25 °F -8 °F (1977)
Degree Days  
Heating Degree Days 11 30  
Month to date heating degree days 330  
Since 1 July heating degree days 1947  
Cooling Degree Days 0 0  
Month to date cooling degree days 0  
Year to date cooling degree days 0  
Growing Degree Days 4 (Base 50)    
Moisture  
Dew Point 43 °F    
Average Humidity 70    
Maximum Humidity 93    
Minimum Humidity 45    
Precipitation  
Precipitation 0.00 in 0.06 in 0.17 in (1993)
Month to date precipitation 0.76  
Year to date precipitation 0.76  
Sea Level Pressure  
Sea Level Pressure 29.78 in    
Wind  
Wind Speed 15 mph (South)    
Max Wind Speed 25 mph    
Max Gust Speed 31 mph    
Visibility 10 miles    
Events      
T = Trace of Precipitation, MM = Missing Value Source: NWS Daily Summary

Daily Weather History Graph

Daily Weather History Graph

Search for Another Location

Airport:

Trip Planner

Search our weather history database for the weather conditions in past years. The results will help you decide how hot, cold, wet, or windy it might be!

Date:

Astronomy

Jan. 11, 2013 Rise Set
Actual Time 7:29 AM CST 5:19 PM CST
Civil Twilight 7:00 AM CST 5:48 PM CST
Nautical Twilight 6:28 AM CST 6:20 PM CST
Astronomical Twilight 5:57 AM CST 6:51 PM CST
Moon 7:03 AM CST (1/11) 5:36 PM CST (1/11)
Length of Visible Light 10h 47m
Length of Day
9h 50m
Waning Crescent, 0% of the Moon is Illuminated
Jan 11
Waning Crescent
Jan 11
New
Jan 18
First Quarter
Jan 26
Full
Feb 3
Last Quarter

Hourly Weather History & Observations

Time (CST) Temp. Windchill Dew Point Humidity Pressure Visibility Wind Dir Wind Speed Gust Speed Precip Events Conditions
12:15 AM 48.2 °F - 44.6 °F 87% 29.83 in 10.0 mi SSW 16.1 mph - N/A   Overcast
12:35 AM 48.2 °F - 44.6 °F 87% 29.83 in 10.0 mi SSW 15.0 mph - N/A   Overcast
12:55 AM 48.2 °F - 44.6 °F 87% 29.83 in 10.0 mi SSW 13.8 mph - N/A   Overcast
1:15 AM 48.2 °F - 44.6 °F 87% 29.84 in 10.0 mi SSW 13.8 mph - N/A   Overcast
1:35 AM 48.2 °F - 44.6 °F 87% 29.84 in 10.0 mi SSW 11.5 mph - N/A   Overcast
1:55 AM 46.4 °F 40.7 °F 44.6 °F 93% 29.84 in 10.0 mi SSW 12.7 mph - N/A   Overcast
2:15 AM 46.4 °F 39.8 °F 44.6 °F 93% 29.84 in 10.0 mi SSW 16.1 mph - N/A   Overcast
2:35 AM 48.2 °F - 44.6 °F 87% 29.86 in 10.0 mi SSW 15.0 mph - N/A   Overcast
2:55 AM 46.4 °F 39.8 °F 44.6 °F 93% 29.85 in 10.0 mi SSW 16.1 mph 20.7 mph N/A   Overcast
3:15 AM 46.4 °F 40.1 °F 44.6 °F 93% 29.84 in 10.0 mi SSW 15.0 mph 18.4 mph N/A   Overcast
3:35 AM 46.4 °F 39.8 °F 44.6 °F 93% 29.85 in 10.0 mi SSW 16.1 mph 20.7 mph N/A   Overcast
3:55 AM 46.4 °F 41.1 °F 44.6 °F 93% 29.84 in 10.0 mi SSW 11.5 mph - N/A   Overcast
4:15 AM 46.4 °F 41.1 °F 44.6 °F 93% 29.82 in 10.0 mi South 11.5 mph - N/A   Overcast
4:35 AM 46.4 °F 40.4 °F 44.6 °F 93% 29.82 in 10.0 mi South 13.8 mph - N/A   Overcast
4:55 AM 46.4 °F 41.1 °F 42.8 °F 87% 29.83 in 10.0 mi SSW 11.5 mph - N/A   Mostly Cloudy
5:15 AM 44.6 °F 38.8 °F 42.8 °F 93% 29.81 in 10.0 mi South 11.5 mph 16.1 mph N/A   Scattered Clouds
5:35 AM 44.6 °F 38.8 °F 42.8 °F 93% 29.80 in 10.0 mi South 11.5 mph - N/A   Clear
5:55 AM 44.6 °F 38.1 °F 42.8 °F 93% 29.80 in 10.0 mi South 13.8 mph - N/A   Clear
6:15 AM 44.6 °F 38.4 °F 42.8 °F 93% 29.81 in 10.0 mi South 12.7 mph - N/A   Clear
6:35 AM 44.6 °F 37.4 °F 42.8 °F 93% 29.81 in 10.0 mi South 16.1 mph - N/A   Clear
6:55 AM 44.6 °F 38.1 °F 42.8 °F 93% 29.80 in 10.0 mi South 13.8 mph - N/A   Clear
7:15 AM 46.4 °F 40.4 °F 42.8 °F 87% 29.81 in 10.0 mi South 13.8 mph - N/A   Clear
7:35 AM 46.4 °F 39.8 °F 42.8 °F 87% 29.80 in 10.0 mi South 16.1 mph - N/A   Clear
7:55 AM 46.4 °F 40.1 °F 42.8 °F 87% 29.81 in 10.0 mi South 15.0 mph - N/A   Clear
8:15 AM 46.4 °F 39.5 °F 42.8 °F 87% 29.82 in 10.0 mi South 17.3 mph - N/A   Clear
8:35 AM 46.4 °F 39.2 °F 42.8 °F 87% 29.81 in 10.0 mi South 18.4 mph 21.9 mph N/A   Clear
8:55 AM 48.2 °F - 42.8 °F 82% 29.81 in 10.0 mi South 18.4 mph 25.3 mph N/A   Clear
9:15 AM 50.0 °F - 42.8 °F 76% 29.81 in 10.0 mi South 19.6 mph 26.5 mph N/A   Clear
9:35 AM 50.0 °F - 42.8 °F 76% 29.80 in 10.0 mi South 19.6 mph 25.3 mph N/A   Clear
10:15 AM 53.6 °F - 44.6 °F 72% 29.81 in 10.0 mi SSW 18.4 mph - N/A   Clear
10:35 AM 55.4 °F - 44.6 °F 67% 29.80 in 10.0 mi SSW 18.4 mph 26.5 mph N/A   Clear
10:55 AM 55.4 °F - 44.6 °F 67% 29.80 in 10.0 mi SSW 19.6 mph 26.5 mph N/A   Clear
11:15 AM 59.0 °F - 44.6 °F 59% 29.79 in 10.0 mi SSW 18.4 mph 27.6 mph N/A   Clear
11:35 AM 59.0 °F - 42.8 °F 55% 29.79 in 10.0 mi SSW 24.2 mph 31.1 mph N/A   Clear
11:55 AM 60.8 °F - 42.8 °F 52% 29.77 in 10.0 mi SSW 25.3 mph 31.1 mph N/A   Clear
12:15 PM 60.8 °F - 42.8 °F 52% 29.76 in 10.0 mi SSW 25.3 mph 31.1 mph N/A   Clear
12:35 PM 60.8 °F - 42.8 °F 52% 29.76 in 10.0 mi SSW 21.9 mph 29.9 mph N/A   Clear
12:55 PM 60.8 °F - 42.8 °F 52% 29.75 in 10.0 mi SSW 19.6 mph 31.1 mph N/A   Clear
1:15 PM 60.8 °F - 42.8 °F 52% 29.75 in 10.0 mi SSW 21.9 mph 28.8 mph N/A   Clear
1:35 PM 60.8 °F - 42.8 °F 52% 29.74 in 10.0 mi South 17.3 mph 24.2 mph N/A   Clear
1:55 PM 60.8 °F - 42.8 °F 52% 29.74 in 10.0 mi South 15.0 mph 24.2 mph N/A   Clear
2:15 PM 60.8 °F - 42.8 °F 52% 29.73 in 10.0 mi South 15.0 mph 25.3 mph N/A   Clear
2:35 PM 62.6 °F - 42.8 °F 48% 29.72 in 10.0 mi South 16.1 mph 25.3 mph N/A   Clear
2:55 PM 62.6 °F - 42.8 °F 48% 29.72 in 10.0 mi South 12.7 mph - N/A   Clear
3:15 PM 62.6 °F - 42.8 °F 48% 29.71 in 10.0 mi South 20.7 mph 25.3 mph N/A   Clear
3:35 PM 62.6 °F - 42.8 °F 48% 29.72 in 10.0 mi SSW 17.3 mph 25.3 mph N/A   Clear
3:55 PM 64.4 °F - 42.8 °F 45% 29.72 in 10.0 mi South 21.9 mph - N/A   Clear
4:15 PM 62.6 °F - 42.8 °F 48% 29.73 in 10.0 mi South 13.8 mph 20.7 mph N/A   Clear
4:35 PM 62.6 °F - 41.0 °F 45% 29.73 in 10.0 mi South 13.8 mph - N/A   Clear
4:55 PM 60.8 °F - 41.0 °F 48% 29.73 in 10.0 mi South 12.7 mph - N/A   Clear
5:15 PM 60.8 °F - 42.8 °F 52% 29.73 in 10.0 mi South 12.7 mph - N/A   Clear
5:35 PM 60.8 °F - 42.8 °F 52% 29.73 in 10.0 mi South 15.0 mph - N/A   Clear
5:55 PM 59.0 °F - 42.8 °F 55% 29.73 in 10.0 mi SSE 11.5 mph - N/A   Clear
6:15 PM 57.2 °F - 42.8 °F 59% 29.73 in 10.0 mi SSE 11.5 mph - N/A   Clear
6:35 PM 57.2 °F - 42.8 °F 59% 29.74 in 10.0 mi SSE 11.5 mph - N/A   Clear
6:55 PM 55.4 °F - 42.8 °F 63% 29.75 in 10.0 mi SSE 11.5 mph - N/A   Clear
7:15 PM 55.4 °F - 42.8 °F 63% 29.75 in 10.0 mi SSE 10.4 mph - N/A   Clear
7:55 PM 55.4 °F - 42.8 °F 63% 29.75 in 10.0 mi SSE 11.5 mph - N/A   Clear
8:15 PM 55.4 °F - 42.8 °F 63% 29.76 in 10.0 mi South 8.1 mph - N/A   Clear
8:35 PM 55.4 °F - 42.8 °F 63% 29.77 in 10.0 mi South 10.4 mph - N/A   Clear
8:55 PM 57.2 °F - 42.8 °F 59% 29.77 in 10.0 mi South 12.7 mph - N/A   Clear
9:15 PM 59.0 °F - 42.8 °F 55% 29.78 in 10.0 mi South 17.3 mph - N/A   Clear
9:35 PM 59.0 °F - 42.8 °F 55% 29.78 in 10.0 mi South 17.3 mph - N/A   Clear
9:55 PM 57.2 °F - 42.8 °F 59% 29.78 in 10.0 mi South 16.1 mph 21.9 mph N/A   Clear
10:15 PM 57.2 °F - 42.8 °F 59% 29.79 in 10.0 mi South 13.8 mph 19.6 mph N/A   Clear
10:35 PM 57.2 °F - 42.8 °F 59% 29.79 in 10.0 mi South 13.8 mph 19.6 mph N/A   Clear
10:55 PM 55.4 °F - 44.6 °F 67% 29.79 in 10.0 mi South 15.0 mph - N/A   Clear
11:15 PM 57.2 °F - 44.6 °F 63% 29.79 in 10.0 mi South 13.8 mph 19.6 mph N/A   Clear
11:35 PM 55.4 °F - 44.6 °F 67% 29.79 in 10.0 mi South 13.8 mph 20.7 mph N/A   Clear